When you browse on this site, cookies collect data to enhance your experience and personalize the content and advertising you see.
Visit our Privacy Policy to learn more. By continuing to use the site, you agree to this use of cookies and data.
  • In Österreich
  • Länderverzeichnis
  • Für 7 Tage
  • Wassertemperatur
  • Satellitenkarten
  • Wetterkarte
  • News
  • Widgets
  • user-avatar
    Anmelden

    Stündliche Wetter Oran

    Heute, 19 Januar, Samstag

    Zeit Temperatur Niederschläge Wind Luftdruck Luftfeuchtigkeit
    00:00 +10°C° 0 mm 6 m/S 753 mmHg 77%
    01:00 +10°C° 0.2 mm 7 m/S 753 mmHg 77%
    02:00 +10°C° 0.2 mm 7 m/S 753 mmHg 77%
    03:00 +10°C° 0.2 mm 7 m/S 752 mmHg 77%
    04:00 +10°C° 0.1 mm 7 m/S 753 mmHg 76%
    05:00 +10°C° 0.1 mm 8 m/S 753 mmHg 76%
    06:00 +10°C° 0.1 mm 8 m/S 753 mmHg 75%
    07:00 +11°C° 0.1 mm 8 m/S 753 mmHg 73%
    08:00 +11°C° 0.1 mm 7 m/S 753 mmHg 72%
    09:00 +12°C° 0.1 mm 7 m/S 753 mmHg 70%
    10:00 +12°C° 0.2 mm 7 m/S 753 mmHg 69%
    11:00 +12°C° 0.2 mm 7 m/S 753 mmHg 69%
    12:00 +14°C° 0.2 mm 6 m/S 753 mmHg 68%
    13:00 +14°C° 0.2 mm 6 m/S 753 mmHg 68%
    14:00 +14°C° 0.2 mm 7 m/S 753 mmHg 69%
    15:00 +12°C° 0.2 mm 7 m/S 752 mmHg 69%
    16:00 +13°C° 0 mm 6 m/S 752 mmHg 69%
    17:00 +13°C° 0 mm 6 m/S 752 mmHg 69%
    18:00 +11°C° 0 mm 6 m/S 752 mmHg 69%
    19:00 +11°C° 0.1 mm 6 m/S 752 mmHg 70%
    20:00 +11°C° 0.1 mm 6 m/S 751 mmHg 72%
    21:00 +13°C° 0.1 mm 6 m/S 751 mmHg 73%
    22:00 +12°C° 0.6 mm 7 m/S 751 mmHg 76%
    23:00 +12°C° 0.6 mm 8 m/S 751 mmHg 79%

    Morgen, 20 Januar, Sonntag

    Zeit Temperatur Niederschläge Wind Luftdruck Luftfeuchtigkeit
    00:00 +12°C° 0.6 mm 9 m/S 751 mmHg 81%
    01:00 +12°C° 0.5 mm 8 m/S 750 mmHg 79%
    02:00 +12°C° 0.5 mm 7 m/S 750 mmHg 76%
    03:00 +12°C° 0.5 mm 7 m/S 749 mmHg 74%
    04:00 +12°C° 0.2 mm 7 m/S 749 mmHg 77%
    05:00 +11°C° 0.2 mm 7 m/S 748 mmHg 79%
    06:00 +11°C° 0.2 mm 7 m/S 748 mmHg 82%
    07:00 +12°C° 0 mm 9 m/S 748 mmHg 79%
    08:00 +12°C° 0 mm 10 m/S 748 mmHg 76%
    09:00 +13°C° 0 mm 11 m/S 748 mmHg 74%
    10:00 +14°C° 0.3 mm 11 m/S 748 mmHg 72%
    11:00 +14°C° 0.3 mm 12 m/S 748 mmHg 71%
    12:00 +14°C° 0.3 mm 13 m/S 748 mmHg 70%
    13:00 +14°C° 0.6 mm 13 m/S 748 mmHg 69%
    14:00 +14°C° 0.6 mm 12 m/S 747 mmHg 69%
    15:00 +14°C° 0.6 mm 12 m/S 747 mmHg 68%
    16:00 +14°C° 1.7 mm 11 m/S 747 mmHg 72%
    17:00 +13°C° 1.7 mm 11 m/S 748 mmHg 75%
    18:00 +13°C° 1.7 mm 10 m/S 748 mmHg 79%
    19:00 +12°C° 3 mm 8 m/S 749 mmHg 80%
    20:00 +12°C° 3 mm 7 m/S 749 mmHg 82%
    21:00 +13°C° 3 mm 5 m/S 750 mmHg 83%
    22:00 +12°C° 1.3 mm 5 m/S 750 mmHg 84%
    23:00 +11°C° 1.3 mm 6 m/S 750 mmHg 84%

    übermorgen, 21 Januar, Montag

    Zeit Temperatur Niederschläge Wind Luftdruck Luftfeuchtigkeit
    00:00 +11°C° 1.3 mm 6 m/S 751 mmHg 84%
    01:00 +12°C° 0.1 mm 5 m/S 751 mmHg 83%
    02:00 +12°C° 0.1 mm 4 m/S 751 mmHg 81%
    03:00 +12°C° 0.1 mm 3 m/S 751 mmHg 80%
    04:00 +11°C° 0.1 mm 3 m/S 751 mmHg 78%
    05:00 +11°C° 0.1 mm 3 m/S 752 mmHg 76%
    06:00 +11°C° 0.1 mm 4 m/S 752 mmHg 74%
    07:00 +11°C° 0.2 mm 4 m/S 752 mmHg 72%
    08:00 +12°C° 0.2 mm 4 m/S 753 mmHg 69%
    09:00 +12°C° 0.2 mm 4 m/S 753 mmHg 67%
    10:00 +13°C° 0.2 mm 4 m/S 754 mmHg 64%
    11:00 +13°C° 0.2 mm 5 m/S 754 mmHg 60%
    12:00 +14°C° 0.2 mm 5 m/S 754 mmHg 57%
    13:00 +14°C° 0.1 mm 5 m/S 754 mmHg 56%
    14:00 +14°C° 0.1 mm 6 m/S 753 mmHg 56%
    15:00 +13°C° 0.1 mm 6 m/S 753 mmHg 55%
    16:00 +13°C° 0 mm 5 m/S 754 mmHg 56%
    17:00 +12°C° 0 mm 4 m/S 754 mmHg 58%
    18:00 +11°C° 0 mm 3 m/S 754 mmHg 59%
    19:00 +11°C° 0 mm 3 m/S 755 mmHg 60%
    20:00 +10°C° 0 mm 3 m/S 755 mmHg 60%
    21:00 +10°C° 0 mm 3 m/S 755 mmHg 61%
    22:00 +10°C° 0.6 mm 3 m/S 755 mmHg 63%
    23:00 +10°C° 0.6 mm 4 m/S 756 mmHg 66%

    22 Januar, Dienstag

    Zeit Temperatur Niederschläge Wind Luftdruck Luftfeuchtigkeit
    00:00 +10°C° 0.6 mm 5 m/S 756 mmHg 68%
    01:00 +9°C° 0.2 mm 5 m/S 755 mmHg 67%
    02:00 +9°C° 0.2 mm 5 m/S 755 mmHg 66%
    03:00 +9°C° 0.2 mm 6 m/S 755 mmHg 65%
    04:00 +9°C° 0 mm 5 m/S 755 mmHg 65%
    05:00 +8°C° 0 mm 4 m/S 755 mmHg 64%
    06:00 +9°C° 0 mm 3 m/S 755 mmHg 64%
    07:00 +10°C° 0 mm 3 m/S 755 mmHg 62%
    08:00 +10°C° 0 mm 3 m/S 756 mmHg 60%
    09:00 +11°C° 0 mm 3 m/S 756 mmHg 59%
    10:00 +12°C° 0 mm 4 m/S 756 mmHg 58%
    11:00 +13°C° 0 mm 5 m/S 755 mmHg 57%
    12:00 +14°C° 0 mm 6 m/S 755 mmHg 57%
    13:00 +13°C° 0 mm 8 m/S 754 mmHg 57%
    14:00 +13°C° 0 mm 9 m/S 753 mmHg 57%
    15:00 +13°C° 0 mm 11 m/S 752 mmHg 58%
    16:00 +12°C° 0 mm 11 m/S 752 mmHg 61%
    17:00 +12°C° 0 mm 11 m/S 751 mmHg 65%
    18:00 +11°C° 0 mm 11 m/S 751 mmHg 69%
    19:00 +11°C° 0 mm 11 m/S 751 mmHg 68%
    20:00 +10°C° 0 mm 12 m/S 751 mmHg 68%
    21:00 +12°C° 0 mm 13 m/S 751 mmHg 68%
    22:00 +10°C° 0.3 mm 13 m/S 750 mmHg 71%
    23:00 +10°C° 0.3 mm 13 m/S 749 mmHg 75%

    23 Januar, Mittwoch

    Zeit Temperatur Niederschläge Wind Luftdruck Luftfeuchtigkeit
    00:00 +10°C° 0.3 mm 13 m/S 749 mmHg 78%
    01:00 +10°C° 2.2 mm 13 m/S 748 mmHg 78%
    02:00 +10°C° 2.2 mm 14 m/S 747 mmHg 78%
    03:00 +10°C° 2.2 mm 14 m/S 747 mmHg 78%
    04:00 +10°C° 1.3 mm 13 m/S 747 mmHg 75%
    05:00 +10°C° 1.3 mm 12 m/S 747 mmHg 73%
    06:00 +11°C° 1.3 mm 11 m/S 747 mmHg 71%
    07:00 +11°C° 0.3 mm 11 m/S 747 mmHg 67%
    08:00 +11°C° 0.3 mm 10 m/S 748 mmHg 63%
    09:00 +11°C° 0.3 mm 9 m/S 749 mmHg 59%
    10:00 +12°C° 0.1 mm 10 m/S 748 mmHg 61%
    11:00 +12°C° 0.1 mm 11 m/S 748 mmHg 62%
    12:00 +12°C° 0.1 mm 12 m/S 748 mmHg 64%
    13:00 +12°C° 0 mm 13 m/S 746 mmHg 64%
    14:00 +11°C° 0 mm 15 m/S 745 mmHg 64%
    15:00 +11°C° 0 mm 16 m/S 744 mmHg 64%
    16:00 +11°C° 0 mm 17 m/S 744 mmHg 64%
    17:00 +11°C° 0 mm 17 m/S 744 mmHg 65%
    18:00 +10°C° 0 mm 17 m/S 744 mmHg 65%
    19:00 +11°C° 0.1 mm 18 m/S 744 mmHg 67%
    20:00 +11°C° 0.1 mm 18 m/S 744 mmHg 68%
    21:00 +11°C° 0.1 mm 18 m/S 745 mmHg 70%
    22:00 +11°C° 1.2 mm 17 m/S 745 mmHg 72%
    23:00 +11°C° 1.2 mm 16 m/S 745 mmHg 73%

    24 Januar, Donnerstag

    Zeit Temperatur Niederschläge Wind Luftdruck Luftfeuchtigkeit
    00:00 +11°C° 1.2 mm 15 m/S 744 mmHg 75%
    01:00 +10°C° 1.7 mm 12 m/S 744 mmHg 75%
    02:00 +11°C° 1.7 mm 10 m/S 744 mmHg 75%
    03:00 +10°C° 1.7 mm 7 m/S 744 mmHg 75%
    04:00 +10°C° 0.3 mm 7 m/S 744 mmHg 76%
    05:00 +9°C° 0.3 mm 6 m/S 743 mmHg 76%
    06:00 +9°C° 0.3 mm 5 m/S 743 mmHg 77%
    07:00 +8°C° 0.1 mm 5 m/S 743 mmHg 75%
    08:00 +8°C° 0.1 mm 5 m/S 743 mmHg 74%
    09:00 +8°C° 0.1 mm 5 m/S 744 mmHg 72%
    10:00 +7°C° 0.1 mm 6 m/S 744 mmHg 72%
    11:00 +6°C° 0.1 mm 7 m/S 744 mmHg 72%
    12:00 +6°C° 0.1 mm 8 m/S 743 mmHg 72%
    13:00 +6°C° 0.4 mm 7 m/S 743 mmHg 69%
    14:00 +7°C° 0.4 mm 6 m/S 743 mmHg 67%
    15:00 +7°C° 0.4 mm 6 m/S 742 mmHg 64%
    16:00 +7°C° 1.6 mm 5 m/S 743 mmHg 69%
    17:00 +6°C° 1.6 mm 4 m/S 743 mmHg 74%
    18:00 +7°C° 1.6 mm 3 m/S 743 mmHg 78%
    19:00 +7°C° 0.5 mm 3 m/S 744 mmHg 78%
    20:00 +7°C° 0.5 mm 3 m/S 744 mmHg 78%
    21:00 +7°C° 0.5 mm 3 m/S 745 mmHg 78%
    22:00 +7°C° 0 mm 3 m/S 746 mmHg 77%
    23:00 +7°C° 0 mm 3 m/S 746 mmHg 76%
    Mehr zeigen